Weather in Firsovo

Russia / Zabaykalsky Krai     52°18′46″N   118°07′44″E
temp.,
°C
wind,
m/s
gust,
m/s
humid.,
%
clouds,
%
prec.,
mm/h
press.,
hPa
HPBL,
m
13 april, tue
tue1300:00−10ssw11445 0.0 102410
03:00−11sw11504 0.0 102310
06:00−11ssw11560 0.0 102210
09:00−5wnw14340 0.0 1020541
12:00−1nnw462142 0.0 10162352
15:00+1nnw3617100 0.0 10122999
18:00+1n371995 0.0 10112771
21:00−5ese11340 0.0 101210
14 april, wed
wed1400:00−6s22392 0.0 101118
03:00−7s224263 0.0 101020
06:00−7se1140100 0.0 100825
09:00−1wnw1227100 0.0 1006411
12:00+2nnw353399 0.0 10051413
15:00+5n4730100 0.1 10042488
18:00+5n3633100 0.0 10051997
21:00−1n11545 0.0 100810
15 april, thu
thu1500:00−3sse11645 0.0 100910
03:00−4sse1170100 0.0 100910
06:00−5ne0176100 0.0 100910
09:000nne1152100 0.0 1008359
12:00+5n133197 0.0 10062061
15:00+5nnw1227100 0.1 10052349
18:00+5n3322100 0.0 10052635
21:00+1ne11365 0.0 100811
16 april, fri
fri1600:00−3se11514 0.0 100910
03:00
06:00−6nne01677 0.0 101310
09:00+1nne12390 0.0 1013398
12:00+6n232324 0.0 10122555
15:00+7nw2415100 0.0 10113569
18:00+7nw341377 0.0 10103159
21:00+1sw22255 0.0 101310
17 april, sat
sat1700:00−1ssw22285 0.0 101323
03:00−4ssw23505 0.0 101537
06:00−3ssw22495 0.0 101237
09:00+4wsw26415 0.0 1011554
12:00+10w47345 0.0 10081153
15:00+14w68280 0.0 10051875
18:00+15w57235 0.0 10042255
21:00+8ssw2237100 0.0 100619